Theta_e
313 313 317 315 317 320 321 321 322 321 321 322 322 323 323 321 321 320 317 317 316 316 316 319 321 321 329 354 349 349 345 350 351 351 350 353 355 352 352 349 352 352 351 349
320 315 314 317 317 317 318 318 319 319 319 320 321 322 322 323 322 321 319 317 317 317 316 318 321 321 327 354 353 347 342 342 348 352 352 352 353 354 353 353 352 354 353 352
320 320 320 317 316 318 317 315 317 318 319 319 319 320 320 323 323 321 320 319 318 318 319 318 318 321 331 360 358 355 356 352 354 355 356 353 355 351 356 353 353 354 356 354
314 317 319 319 320 317 318 317 317 317 317 319 318 320 319 323 324 324 321 320 319 319 318 318 319 318 331 353 360 360 357 358 358 358 359 356 358 357 356 357 356 355 355 356
321 319 322 323 322 321 322 321 323 324 322 318 317 318 319 323 325 325 322 320 319 319 316 316 319 320 329 345 356 360 361 359 360 360 360 359 357 355 358 358 358 356 355 355
318 316 319 319 318 320 322 323 324 324 323 326 317 317 318 320 322 324 324 320 321 319 317 316 318 322 328 339 350 357 361 361 359 359 358 358 356 356 356 356 357 356 355 353
317 318 316 318 318 317 318 319 328 329 327 327 319 317 318 320 323 324 323 322 321 320 319 318 318 319 329 335 338 342 354 359 360 359 358 355 355 352 350 350 353 353 352 352
318 319 316 316 317 319 319 319 321 327 325 324 321 320 318 319 320 323 323 322 322 321 320 319 319 319 326 332 333 337 343 353 359 360 356 355 353 348 347 350 351 352 350 349
322 322 317 318 319 320 323 323 321 324 325 328 326 320 318 319 319 319 319 319 318 320 321 320 320 319 319 329 330 331 334 340 354 356 355 354 350 354 353 352 351 351 349 346
318 321 316 318 320 319 322 321 327 320 327 325 323 324 321 327 328 321 319 318 317 321 322 321 320 320 321 327 331 333 335 341 354 355 352 352 352 350 349 347 345 345 344 343
318 319 317 317 322 322 321 324 324 323 325 325 321 320 327 330 328 329 330 318 320 335 330 323 321 320 322 327 332 337 346 353 352 352 350 348 346 345 344 341 339 338 336 334
316 317 317 318 316 319 321 323 324 323 324 325 324 325 328 329 328 328 335 322 346 345 344 342 333 320 325 341 347 348 348 347 346 345 342 340 339 338 337 336 335 332 327 325
316 318 315 316 323 319 319 317 323 324 326 326 325 329 325 330 330 330 340 345 345 345 346 345 345 346 347 347 346 343 341 341 340 338 336 332 330 328 325 323 322 321 321 319
315 315 317 317 319 317 319 319 320 322 325 325 325 324 326 325 330 331 333 339 342 344 345 344 343 343 343 342 341 338 336 335 333 331 329 327 325 323 321 318 317 315 315 314
315 311 314 315 315 315 315 316 317 320 321 326 327 327 329 329 332 328 331 336 340 345 344 344 343 341 340 337 335 333 332 330 328 326 323 321 318 317 316 316 315 315 314 313
315 318 314 315 314 317 318 317 318 319 321 323 326 329 329 330 331 333 335 337 338 343 343 340 339 336 335 333 331 329 327 325 323 321 319 318 317 316 316 315 314 314 312 311
311 313 313 312 316 316 320 323 322 321 319 321 330 327 327 330 332 333 333 331 330 330 336 335 334 332 330 328 326 324 322 321 320 319 318 317 317 315 313 312 310 310 309 308
311 312 316 316 315 319 326 322 323 320 320 322 329 327 326 329 327 329 328 326 325 323 325 326 324 323 323 322 321 320 319 318 317 316 313 311 311 310 310 309 308 308 308 309
312 315 317 316 318 319 323 322 324 328 328 327 329 331 329 324 323 324 324 323 322 321 317 318 317 315 315 314 313 312 311 310 309 309 309 308 309 308 308 308 309 309 308 307
316 315 316 318 319 324 321 317 319 324 335 327 329 330 328 327 325 324 320 319 318 317 316 316 314 314 312 311 310 310 309 308 307 307 307 307 307 307 309 308 308 307 306 305
318 314 316 317 319 321 315 315 320 332 332 324 329 328 327 325 320 318 317 316 315 314 313 312 311 310 309 308 308 307 306 306 307 306 306 306 308 308 307 306 306 305 305 305
319 320 320 319 323 324 311 315 323 319 314 324 327 327 319 316 316 315 315 315 313 312 312 311 309 308 307 306 305 305 306 306 306 306 306 308 307 306 305 305 305 305 304 304
319 317 317 315 315 310 311 312 311 313 327 328 325 319 317 316 314 314 313 312 312 312 311 310 310 308 307 305 304 304 305 306 306 306 305 305 304 304 304 304 303 303 304 304
315 312 315 314 312 311 310 310 310 312 316 322 320 318 316 315 314 313 312 311 311 310 310 308 308 307 306 304 303 302 305 306 306 305 304 303 302 301 300 300 300 300 300 301
311 313 313 312 310 311 310 310 310 310 311 313 316 316 315 314 313 313 312 311 310 309 309 308 307 305 304 303 302 302 304 304 306 304 302 302 301 299 297 295 294 295 294 297
310 313 313 311 312 311 311 310 309 309 309 309 310 311 311 311 311 311 311 310 310 310 310 309 307 305 303 302 302 301 303 305 304 304 303 301 298 296 294 293 292 292 293 293
Wind_Speed
10 8 16 10 15 19 17 18 20 20 16 22 18 22 20 18 20 17 12 9 10 11 9 17 23 27 18 39 46 46 40 32 37 32 32 30 26 29 26 28 25 25 29 30
12 20 17 14 18 20 22 23 23 21 19 16 16 26 20 18 19 23 16 10 11 9 11 10 19 31 27 38 39 41 43 43 41 33 38 31 30 25 26 22 23 22 26 31
16 21 16 21 22 22 20 19 17 20 18 21 17 20 14 11 21 22 20 18 11 13 19 19 13 19 26 33 39 37 41 39 40 38 34 32 26 29 22 27 27 24 25 32
17 19 22 20 17 23 21 19 21 19 14 13 10 14 16 7 15 16 25 19 15 13 8 19 18 8 23 32 39 44 43 45 37 37 32 33 27 21 27 27 30 28 23 26
15 23 26 10 14 19 16 13 11 14 13 14 16 10 10 6 18 14 20 16 18 15 11 10 9 11 28 32 37 42 45 43 40 37 35 33 27 24 16 26 24 21 20 19
16 22 21 14 18 21 16 7 9 11 11 11 15 13 15 13 17 17 14 11 21 17 15 15 13 14 21 32 36 39 44 41 40 40 36 30 27 20 21 21 20 19 17 15
13 21 28 10 8 18 22 9 5 3 4 10 14 15 13 10 15 18 16 18 17 18 18 19 15 9 17 26 33 33 35 33 33 37 30 33 32 26 18 18 20 17 16 14
8 14 11 4 13 8 3 8 8 6 5 10 16 16 13 20 19 15 18 20 23 19 16 23 20 13 18 26 32 35 34 31 34 34 30 28 29 23 19 17 17 16 17 14
6 6 10 12 4 3 4 5 6 5 6 4 4 22 16 21 21 19 21 20 17 14 22 20 23 16 19 30 31 34 34 35 35 33 30 31 24 21 27 22 21 21 21 22
4 6 9 4 4 15 10 3 5 3 5 4 7 10 10 1 8 15 23 22 20 19 24 20 19 19 21 32 35 33 36 32 32 34 32 30 27 28 30 29 29 27 24 20
3 4 4 5 4 4 3 4 5 3 3 4 8 10 6 4 5 12 22 21 8 2 9 12 18 15 22 32 37 31 32 35 34 37 33 35 35 35 33 30 26 25 23 22
2 1 4 6 11 2 3 4 5 4 6 6 5 7 3 7 6 15 21 12 11 10 11 9 7 9 13 25 31 34 35 36 37 39 38 36 37 37 36 34 32 30 29 26
3 3 4 7 7 10 2 8 5 9 1 13 7 4 14 15 11 16 7 14 13 14 18 15 15 16 20 27 32 33 34 37 38 38 40 33 35 38 37 34 32 30 27 25
4 4 4 3 10 9 10 11 4 4 5 3 9 13 8 17 17 16 8 10 9 12 18 17 15 15 16 28 33 34 35 36 39 39 37 35 32 34 35 34 31 28 24 23
5 3 4 9 14 17 17 18 17 6 7 5 4 6 5 8 14 9 6 8 4 13 12 18 17 12 17 26 33 34 36 36 40 38 37 35 37 36 34 31 28 26 24 21
2 3 7 8 14 9 16 18 18 20 16 15 13 4 5 3 4 4 6 4 4 4 10 12 19 19 19 29 32 36 36 35 38 40 35 36 34 32 31 28 24 21 19 17
11 5 4 4 9 17 10 9 17 18 15 14 7 7 6 3 6 3 10 13 13 13 9 9 13 15 22 34 37 37 38 36 37 35 32 31 28 30 28 24 21 19 17 16
8 6 2 5 8 3 7 18 5 12 13 10 12 15 10 12 13 10 11 18 18 21 15 9 19 16 32 38 40 39 38 33 33 29 26 27 30 28 24 22 20 18 19 21
16 6 2 3 3 9 6 12 9 8 5 9 11 12 16 21 23 10 13 15 17 24 19 11 32 35 42 37 40 40 36 39 33 28 27 26 25 24 22 21 19 18 25 23
10 8 2 2 2 4 4 22 19 13 4 12 16 13 16 14 11 4 12 17 17 18 27 19 32 36 38 34 38 36 32 31 26 28 25 22 20 21 22 22 23 22 22 21
3 2 4 6 3 5 11 25 14 4 1 12 6 19 14 11 9 10 17 17 17 20 24 32 32 32 30 31 38 32 30 27 27 24 23 23 22 23 21 21 20 17 18 17
0 3 1 3 2 4 20 11 6 9 14 12 1 8 24 22 16 14 17 19 16 18 24 27 29 28 30 35 36 28 27 25 24 23 23 25 22 20 17 17 16 14 16 16
2 4 2 3 3 7 11 8 12 14 4 7 4 18 21 20 18 16 17 18 16 18 21 24 27 28 27 27 28 24 20 22 22 24 27 24 22 19 16 17 15 16 14 14
2 6 2 2 5 11 11 10 14 11 12 15 19 17 20 19 18 17 17 16 15 19 19 22 23 21 19 23 22 21 20 21 23 26 22 21 23 22 18 15 14 16 17 16
3 5 3 2 4 2 13 12 11 15 18 18 15 17 20 19 18 17 15 15 15 19 18 18 18 18 17 20 19 14 14 15 22 22 21 20 18 18 21 18 16 17 15 13
6 4 3 3 4 10 11 12 14 22 17 17 20 18 16 19 19 18 16 17 18 18 16 13 12 16 18 16 15 12 11 13 18 19 17 19 19 19 19 23 24 22 21 17
Wind_Direction
202 218 229 217 229 243 263 265 254 253 242 243 248 254 243 222 217 232 223 223 232 231 225 228 230 242 208 162 162 174 171 182 183 188 189 204 209 210 209 211 210 214 210 211
254 233 234 235 246 240 235 245 258 272 272 278 268 253 249 234 222 214 212 207 214 228 230 227 218 220 206 178 167 176 188 188 195 187 200 201 212 211 217 212 218 218 219 211
246 260 243 225 241 248 242 246 249 245 254 268 266 274 272 264 229 209 208 197 203 202 228 224 213 208 189 167 169 169 177 190 187 185 187 191 206 220 219 219 222 222 224 213
246 262 252 266 267 236 247 238 249 262 260 246 251 262 262 249 278 246 205 198 210 214 217 212 212 199 197 176 169 171 175 183 187 179 179 185 194 190 213 209 215 219 212 201
299 304 300 282 282 302 281 291 332 310 293 293 249 254 264 252 233 262 197 205 212 209 188 205 205 205 201 183 174 175 177 181 184 183 184 187 197 205 170 193 183 170 170 183
215 256 259 240 244 260 269 271 313 325 296 273 251 234 251 243 247 268 252 213 205 214 196 203 205 204 197 183 174 172 176 182 188 194 202 192 187 172 155 152 160 167 173 185
297 274 275 231 268 277 279 215 209 285 268 259 256 240 228 220 225 215 238 232 223 204 202 199 200 180 167 173 168 167 168 172 183 192 184 192 194 181 179 179 170 180 190 187
277 290 249 267 255 290 232 325 232 212 221 264 259 260 234 246 244 239 236 233 232 222 191 195 201 195 165 180 171 169 166 166 176 185 185 180 184 170 182 182 181 187 178 167
298 253 324 296 243 338 307 255 297 179 194 258 277 270 240 232 236 237 255 257 258 234 210 185 195 197 163 177 182 174 173 174 172 174 172 173 167 159 160 163 160 161 156 142
247 281 255 314 14 184 200 151 314 3 181 226 235 270 247 290 318 266 240 249 251 267 199 185 180 192 187 170 178 175 174 163 155 155 155 151 148 147 146 140 135 134 132 131
271 260 289 295 208 181 163 150 180 192 161 204 261 253 190 261 313 317 294 235 229 137 152 175 186 178 178 159 169 162 146 134 131 143 143 139 136 137 133 127 128 127 121 118
132 249 277 265 257 52 164 323 204 179 184 208 245 270 353 295 346 315 274 237 110 72 71 72 117 151 134 126 130 126 123 122 124 125 122 119 124 124 124 122 125 123 115 112
341 244 308 333 39 43 354 285 302 255 295 235 244 263 348 336 352 308 338 99 87 90 77 75 80 100 114 117 120 115 116 116 115 116 116 116 117 118 117 117 114 113 111 103
259 259 238 272 307 292 280 287 255 188 238 288 258 286 2 337 315 278 354 41 95 84 101 92 93 106 119 124 116 111 111 114 114 112 114 110 111 116 117 112 107 104 103 99
173 236 277 297 297 289 286 283 288 211 244 251 270 276 135 246 277 274 355 345 77 84 93 116 116 122 119 107 107 112 111 112 114 111 108 108 114 114 112 109 109 105 100 101
208 283 311 290 289 317 305 274 254 247 205 220 251 258 180 254 317 301 280 291 62 112 106 116 117 125 121 113 113 111 109 109 110 106 107 112 114 113 109 107 107 107 103 97
288 282 357 259 333 311 278 299 228 217 215 199 200 185 176 101 286 50 69 72 69 48 80 95 97 132 117 112 113 110 109 106 104 107 112 119 118 113 109 105 103 100 98 99
249 271 214 284 304 267 334 332 320 196 226 186 130 167 178 103 61 76 93 92 82 65 53 75 97 72 101 105 104 105 105 108 104 106 105 105 110 110 109 107 104 103 101 103
215 214 265 273 300 288 356 353 351 360 292 140 125 125 115 99 79 48 93 90 95 92 69 41 95 89 76 85 90 91 90 87 88 90 96 104 111 108 108 105 104 101 106 102
71 107 164 324 302 303 353 328 323 317 94 114 128 129 131 132 102 80 85 91 88 89 102 90 78 86 85 82 86 87 85 89 89 94 99 105 106 106 104 101 99 101 101 98
121 168 216 232 245 239 349 329 323 53 14 302 205 142 151 112 103 119 102 80 84 84 88 87 82 83 89 92 90 85 88 92 104 106 103 109 106 104 103 103 98 99 101 100
329 268 239 276 322 360 350 349 25 307 298 309 296 123 104 109 113 108 97 92 81 81 79 87 89 81 85 89 93 88 89 104 105 104 102 108 102 96 94 102 108 116 114 114
40 355 15 18 354 306 323 328 311 306 53 115 126 112 121 119 117 111 101 96 91 80 78 81 84 82 84 93 96 91 102 106 105 104 104 100 103 105 103 109 102 99 99 102
48 17 39 235 353 347 1 356 352 14 41 109 118 126 117 119 116 110 104 99 92 86 80 87 88 89 86 88 89 90 89 107 111 112 112 113 106 104 102 100 105 96 84 85
319 337 15 50 314 341 25 22 10 48 52 70 87 113 116 113 107 108 103 100 99 98 88 85 89 95 98 93 91 95 89 110 106 113 113 115 112 113 103 94 88 97 84 90
349 343 26 22 53 66 42 42 53 61 55 64 75 86 90 100 104 101 100 102 104 103 102 104 117 109 102 95 84 79 89 105 119 111 125 130 122 123 116 109 95 88 87 90